Time,TemperatureF,DewpointF,PressureIn,WindDirection,WindDirectionDegrees,WindSpeedMPH,WindSpeedGustMPH,Humidity,HourlyPrecipIn,Conditions,Clouds,dailyrainin,SoftwareType,DateUTC
2013-09-01 00:06:00,62.7,41.4,29.71,WSW,256,0.0,0.0,58,0.00,,,0.38,jdr_py version_0.1,2013-09-01 06:06:00,
2013-09-01 00:12:00,62.7,41.4,29.71,WSW,256,0.0,0.0,58,0.00,,,0.38,jdr_py version_0.1,2013-09-01 06:12:00,
2013-09-01 00:18:00,62.7,42.6,29.71,WSW,256,0.0,0.0,60,0.00,,,0.38,jdr_py version_0.1,2013-09-01 06:18:00,
2013-09-01 00:24:00,62.4,43.6,29.70,WSW,256,0.0,0.0,62,0.00,,,0.38,jdr_py version_0.1,2013-09-01 06:24:00,
2013-09-01 00:30:00,62.1,43.9,29.70,WSW,256,0.0,0.0,63,0.00,,,0.38,jdr_py version_0.1,2013-09-01 06:30:00,
2013-09-01 00:36:00,61.8,43.7,29.70,WSW,256,0.0,0.0,63,0.00,,,0.38,jdr_py version_0.1,2013-09-01 06:36:00,
2013-09-01 00:42:00,61.6,44.1,29.70,West,269,0.0,3.0,64,0.00,,,0.38,jdr_py version_0.1,2013-09-01 06:42:00,
2013-09-01 00:48:00,61.3,44.4,29.70,North,360,3.0,7.0,65,0.00,,,0.38,jdr_py version_0.1,2013-09-01 06:48:00,
2013-09-01 01:12:00,60.9,44.6,29.72,NNE,19,4.0,0.0,66,0.00,,,0.00,jdr_py version_0.1,2013-09-01 07:12:00,
2013-09-01 01:18:00,60.9,44.6,29.72,NNE,19,2.0,0.0,66,0.00,,,0.00,jdr_py version_0.1,2013-09-01 07:18:00,
2013-09-01 01:24:00,60.4,45.2,29.73,NNE,32,1.0,0.0,68,0.00,,,0.00,jdr_py version_0.1,2013-09-01 07:24:00,
2013-09-01 01:30:00,60.2,46.2,29.73,NNE,32,0.0,0.0,70,0.00,,,0.00,jdr_py version_0.1,2013-09-01 07:30:00,
2013-09-01 01:36:00,60.2,45.6,29.73,NNE,32,0.0,0.0,69,0.00,,,0.00,jdr_py version_0.1,2013-09-01 07:36:00,
2013-09-01 01:42:00,60.4,46.3,29.73,NNE,32,0.0,0.0,70,0.00,,,0.00,jdr_py version_0.1,2013-09-01 07:42:00,
2013-09-01 01:48:00,60.2,45.1,29.73,North,11,1.0,0.0,68,0.00,,,0.00,jdr_py version_0.1,2013-09-01 07:48:00,
2013-09-01 01:54:00,59.9,45.9,29.72,NNW,327,1.0,6.0,70,0.00,,,0.00,jdr_py version_0.1,2013-09-01 07:54:00,
2013-09-01 02:00:00,59.8,45.2,29.72,NNW,327,2.0,2.0,69,0.00,,,0.00,jdr_py version_0.1,2013-09-01 08:00:00,
2013-09-01 02:06:00,59.8,45.2,29.72,NNW,327,2.0,2.0,69,0.00,,,0.00,jdr_py version_0.1,2013-09-01 08:06:00,
2013-09-01 02:12:00,59.6,45.6,29.72,NNW,327,2.0,4.0,70,0.00,,,0.00,jdr_py version_0.1,2013-09-01 08:12:00,
2013-09-01 02:18:00,59.6,44.5,29.72,NW,321,2.0,5.0,68,0.00,,,0.00,jdr_py version_0.1,2013-09-01 08:18:00,
2013-09-01 02:24:00,59.8,43.6,29.74,WNW,301,3.0,6.0,66,0.00,,,0.00,jdr_py version_0.1,2013-09-01 08:24:00,
2013-09-01 02:30:00,59.9,43.7,29.74,NW,305,4.0,6.0,66,0.00,,,0.00,jdr_py version_0.1,2013-09-01 08:30:00,
2013-09-01 02:36:00,60.2,42.8,29.74,NW,306,5.0,8.0,64,0.00,,,0.00,jdr_py version_0.1,2013-09-01 08:36:00,
2013-09-01 02:42:00,60.4,43.5,29.75,NNW,327,7.0,7.0,65,0.00,,,0.00,jdr_py version_0.1,2013-09-01 08:42:00,
2013-09-01 02:48:00,59.8,44.7,29.75,NNW,338,6.0,6.0,68,0.00,,,0.00,jdr_py version_0.1,2013-09-01 08:48:00,
2013-09-01 02:54:00,59.5,45.0,29.74,NNW,333,6.0,6.0,69,0.00,,,0.00,jdr_py version_0.1,2013-09-01 08:54:00,
2013-09-01 03:00:00,59.3,44.2,29.74,NNW,340,7.0,8.0,68,0.00,,,0.00,jdr_py version_0.1,2013-09-01 09:00:00,
2013-09-01 03:06:00,59.5,43.8,29.74,NNW,330,8.0,8.0,67,0.00,,,0.00,jdr_py version_0.1,2013-09-01 09:06:00,
2013-09-01 03:12:00,59.5,43.8,29.75,NW,324,8.0,8.0,67,0.00,,,0.00,jdr_py version_0.1,2013-09-01 09:12:00,
2013-09-01 03:18:00,59.3,43.7,29.75,NW,326,8.0,11.0,67,0.00,,,0.00,jdr_py version_0.1,2013-09-01 09:18:00,
2013-09-01 03:24:00,59.2,43.6,29.75,NW,318,8.0,12.0,67,0.00,,,0.00,jdr_py version_0.1,2013-09-01 09:24:00,
2013-09-01 03:30:00,58.9,43.8,29.75,NNW,334,8.0,11.0,68,0.00,,,0.00,jdr_py version_0.1,2013-09-01 09:30:00,
2013-09-01 03:36:00,58.4,43.9,29.75,NNW,338,8.0,8.0,69,0.00,,,0.00,jdr_py version_0.1,2013-09-01 09:36:00,
2013-09-01 03:42:00,58.1,44.2,29.77,NNW,336,8.0,8.0,70,0.00,,,0.00,jdr_py version_0.1,2013-09-01 09:42:00,
2013-09-01 03:48:00,57.8,44.4,29.77,NW,323,9.0,11.0,71,0.00,,,0.00,jdr_py version_0.1,2013-09-01 09:48:00,
2013-09-01 04:00:00,57.3,45.5,29.76,NNW,335,9.0,9.0,74,0.00,,,0.00,jdr_py version_0.1,2013-09-01 10:00:00,
2013-09-01 04:06:00,57.2,46.0,29.76,NNW,333,9.0,12.0,75,0.00,,,0.00,jdr_py version_0.1,2013-09-01 10:06:00,
2013-09-01 04:12:00,57.0,46.3,29.76,NW,314,9.0,15.0,76,0.00,,,0.00,jdr_py version_0.1,2013-09-01 10:12:00,
2013-09-01 04:18:00,56.9,46.2,29.76,NW,316,9.0,11.0,76,0.00,,,0.00,jdr_py version_0.1,2013-09-01 10:18:00,
2013-09-01 04:42:00,56.2,47.0,29.88,NNW,344,11.0,12.0,79,0.00,,,0.00,jdr_py version_0.1,2013-09-01 10:42:00,
2013-09-01 04:48:00,56.0,47.3,29.88,NNW,342,11.0,11.0,80,0.00,,,0.00,jdr_py version_0.1,2013-09-01 10:48:00,
2013-09-01 05:30:00,55.7,47.9,29.89,NNW,347,11.0,11.0,82,0.00,,,0.00,jdr_py version_0.1,2013-09-01 11:30:00,
2013-09-01 05:36:00,55.6,48.3,29.89,North,360,11.0,11.0,83,0.00,,,0.00,jdr_py version_0.1,2013-09-01 11:36:00,
2013-09-01 05:42:00,55.4,48.1,29.90,North,355,11.0,12.0,83,0.00,,,0.00,jdr_py version_0.1,2013-09-01 11:42:00,
2013-09-01 05:54:00,55.1,48.7,29.90,NNW,344,11.0,11.0,85,0.00,,,0.00,jdr_py version_0.1,2013-09-01 11:54:00,
2013-09-01 06:00:00,55.1,48.7,29.90,North,355,11.0,13.0,85,0.00,,,0.00,jdr_py version_0.1,2013-09-01 12:00:00,
2013-09-01 06:06:00,55.1,49.2,29.90,North,355,11.0,11.0,86,0.00,,,0.00,jdr_py version_0.1,2013-09-01 12:06:00,
2013-09-01 06:12:00,55.1,49.2,29.90,North,350,12.0,12.0,86,0.00,,,0.00,jdr_py version_0.1,2013-09-01 12:12:00,
2013-09-01 06:18:00,55.0,49.1,29.90,North,355,11.0,13.0,86,0.00,,,0.00,jdr_py version_0.1,2013-09-01 12:18:00,
2013-09-01 06:24:00,55.0,49.1,29.92,North,355,11.0,11.0,86,0.00,,,0.00,jdr_py version_0.1,2013-09-01 12:24:00,
2013-09-01 06:30:00,55.0,49.1,29.92,North,355,11.0,14.0,86,0.00,,,0.00,jdr_py version_0.1,2013-09-01 12:30:00,
2013-09-01 06:36:00,55.0,49.5,29.92,North,351,11.0,12.0,87,0.00,,,0.00,jdr_py version_0.1,2013-09-01 12:36:00,
2013-09-01 06:42:00,55.0,49.5,29.92,North,355,11.0,16.0,87,0.00,,,0.00,jdr_py version_0.1,2013-09-01 12:42:00,
2013-09-01 06:48:00,55.0,49.5,29.92,North,355,12.0,12.0,87,0.00,,,0.00,jdr_py version_0.1,2013-09-01 12:48:00,
2013-09-01 06:54:00,55.0,49.5,29.92,North,355,11.0,11.0,87,0.00,,,0.00,jdr_py version_0.1,2013-09-01 12:54:00,
2013-09-01 07:00:00,55.0,49.5,29.92,North,355,12.0,12.0,87,0.00,,,0.00,jdr_py version_0.1,2013-09-01 13:00:00,
2013-09-01 07:06:00,54.8,49.3,29.92,NNE,22,12.0,12.0,87,0.00,,,0.00,jdr_py version_0.1,2013-09-01 13:06:00,
2013-09-01 07:12:00,54.8,49.8,29.92,North,5,12.0,12.0,88,0.00,,,0.00,jdr_py version_0.1,2013-09-01 13:12:00,
2013-09-01 07:18:00,54.8,49.8,29.92,North,360,11.0,12.0,88,0.00,,,0.00,jdr_py version_0.1,2013-09-01 13:18:00,
2013-09-01 07:24:00,54.8,49.8,29.93,North,5,12.0,12.0,88,0.00,,,0.00,jdr_py version_0.1,2013-09-01 13:24:00,
2013-09-01 07:31:00,54.8,49.8,29.93,North,360,11.0,13.0,88,0.00,,,0.00,jdr_py version_0.1,2013-09-01 13:31:00,
2013-09-01 07:36:00,55.0,50.0,29.93,North,355,11.0,13.0,88,0.00,,,0.00,jdr_py version_0.1,2013-09-01 13:36:00,
2013-09-01 07:42:00,55.1,50.1,29.93,NNW,341,12.0,12.0,88,0.00,,,0.00,jdr_py version_0.1,2013-09-01 13:42:00,
2013-09-01 07:48:00,55.3,49.8,29.93,NNW,347,12.0,12.0,87,0.00,,,0.00,jdr_py version_0.1,2013-09-01 13:48:00,
2013-09-01 07:54:00,55.6,50.1,29.92,North,355,11.0,11.0,87,0.00,,,0.00,jdr_py version_0.1,2013-09-01 13:54:00,
2013-09-01 08:00:00,55.6,50.1,29.92,NNW,341,11.0,11.0,87,0.00,,,0.00,jdr_py version_0.1,2013-09-01 14:00:00,
2013-09-01 08:06:00,55.7,49.8,29.92,North,360,11.0,11.0,86,0.00,,,0.00,jdr_py version_0.1,2013-09-01 14:06:00,
2013-09-01 08:12:00,55.7,49.8,29.92,NNW,344,12.0,12.0,86,0.00,,,0.00,jdr_py version_0.1,2013-09-01 14:12:00,
2013-09-01 08:18:00,55.9,50.4,29.92,North,355,11.0,11.0,87,0.00,,,0.00,jdr_py version_0.1,2013-09-01 14:18:00,
2013-09-01 08:24:00,55.9,50.0,29.94,North,5,11.0,11.0,86,0.00,,,0.00,jdr_py version_0.1,2013-09-01 14:24:00,
2013-09-01 08:30:00,55.9,50.0,29.94,North,355,12.0,15.0,86,0.00,,,0.00,jdr_py version_0.1,2013-09-01 14:30:00,
2013-09-01 08:36:00,55.9,51.7,29.94,North,355,12.0,12.0,90,0.00,,,0.00,jdr_py version_0.1,2013-09-01 14:36:00,
2013-09-01 08:42:00,56.0,50.1,29.95,NNW,348,11.0,13.0,86,0.00,,,0.00,jdr_py version_0.1,2013-09-01 14:42:00,
2013-09-01 08:48:00,56.3,50.4,29.95,North,351,11.0,11.0,86,0.00,,,0.00,jdr_py version_0.1,2013-09-01 14:48:00,
2013-09-01 08:54:00,56.5,50.1,29.93,North,350,12.0,12.0,85,0.00,,,0.00,jdr_py version_0.1,2013-09-01 14:54:00,
2013-09-01 09:00:00,56.7,50.3,29.93,North,360,12.0,12.0,85,0.00,,,0.00,jdr_py version_0.1,2013-09-01 15:00:00,
2013-09-01 09:06:00,56.9,50.5,29.93,NNW,338,12.0,12.0,85,0.00,,,0.00,jdr_py version_0.1,2013-09-01 15:06:00,
2013-09-01 09:12:00,57.0,50.6,29.93,North,355,12.0,12.0,85,0.00,,,0.00,jdr_py version_0.1,2013-09-01 15:12:00,
2013-09-01 09:18:00,57.3,50.9,29.93,NNW,348,11.0,11.0,85,0.00,,,0.00,jdr_py version_0.1,2013-09-01 15:18:00,
2013-09-01 09:24:00,57.3,50.9,29.90,North,5,11.0,11.0,85,0.00,,,0.00,jdr_py version_0.1,2013-09-01 15:24:00,
2013-09-01 09:30:00,57.6,51.2,29.90,North,9,12.0,13.0,85,0.00,,,0.00,jdr_py version_0.1,2013-09-01 15:30:00,
2013-09-01 09:36:00,58.0,51.6,29.90,North,5,12.0,12.0,85,0.00,,,0.00,jdr_py version_0.1,2013-09-01 15:36:00,
2013-09-01 09:42:00,58.1,51.7,29.91,North,5,12.0,12.0,85,0.00,,,0.00,jdr_py version_0.1,2013-09-01 15:42:00,
2013-09-01 09:48:00,58.7,52.2,29.91,NNE,15,11.0,12.0,85,0.00,,,0.00,jdr_py version_0.1,2013-09-01 15:48:00,
2013-09-01 09:54:00,59.3,51.9,29.90,North,5,12.0,14.0,83,0.00,,,0.00,jdr_py version_0.1,2013-09-01 15:54:00,
2013-09-01 10:00:00,59.6,52.7,29.90,North,355,12.0,12.0,84,0.00,,,0.00,jdr_py version_0.1,2013-09-01 16:00:00,
2013-09-01 10:06:00,59.6,52.2,29.90,North,350,11.0,11.0,83,0.00,,,0.00,jdr_py version_0.1,2013-09-01 16:06:00,
2013-09-01 10:12:00,59.9,52.9,29.91,NNE,24,9.0,11.0,84,0.00,,,0.00,jdr_py version_0.1,2013-09-01 16:12:00,
2013-09-01 10:24:00,61.3,54.3,29.86,NNW,339,8.0,11.0,84,0.00,,,0.00,jdr_py version_0.1,2013-09-01 16:24:00,
2013-09-01 10:30:00,60.7,53.2,29.86,North,5,8.0,8.0,83,0.00,,,0.00,jdr_py version_0.1,2013-09-01 16:30:00,
2013-09-01 10:36:00,60.9,53.4,29.86,North,355,8.0,11.0,83,0.00,,,0.00,jdr_py version_0.1,2013-09-01 16:36:00,
2013-09-01 10:42:00,61.6,53.2,29.87,North,5,7.0,7.0,81,0.00,,,0.00,jdr_py version_0.1,2013-09-01 16:42:00,
2013-09-01 10:48:00,62.4,53.9,29.87,North,360,8.0,8.0,81,0.00,,,0.00,jdr_py version_0.1,2013-09-01 16:48:00,
2013-09-01 10:54:00,62.4,53.9,29.86,NNE,22,9.0,9.0,81,0.00,,,0.00,jdr_py version_0.1,2013-09-01 16:54:00,
2013-09-01 11:00:00,62.7,54.2,29.86,NNE,31,9.0,9.0,81,0.00,,,0.00,jdr_py version_0.1,2013-09-01 17:00:00,
2013-09-01 11:06:00,63.2,54.2,29.86,North,5,8.0,9.0,80,0.00,,,0.00,jdr_py version_0.1,2013-09-01 17:06:00,
2013-09-01 11:12:00,63.7,54.2,29.84,North,355,8.0,8.0,79,0.00,,,0.00,jdr_py version_0.1,2013-09-01 17:12:00,
2013-09-01 11:18:00,64.3,55.3,29.84,NNW,334,7.0,7.0,80,0.00,,,0.00,jdr_py version_0.1,2013-09-01 17:18:00,
2013-09-01 11:24:00,64.7,56.1,29.82,NNE,27,6.0,11.0,81,0.00,,,0.00,jdr_py version_0.1,2013-09-01 17:24:00,
2013-09-01 11:30:00,65.0,53.9,29.82,NE,38,7.0,7.0,76,0.00,,,0.00,jdr_py version_0.1,2013-09-01 17:30:00,
2013-09-01 11:36:00,64.8,53.7,29.82,NNE,23,7.0,9.0,76,0.00,,,0.00,jdr_py version_0.1,2013-09-01 17:36:00,
2013-09-01 11:42:00,65.0,54.4,29.83,NNE,17,6.0,6.0,77,0.00,,,0.00,jdr_py version_0.1,2013-09-01 17:42:00,
2013-09-01 11:48:00,64.8,53.2,29.83,NNE,17,4.0,0.0,75,0.00,,,0.00,jdr_py version_0.1,2013-09-01 17:48:00,
2013-09-01 11:54:00,64.7,53.6,29.82,North,351,4.0,6.0,76,0.00,,,0.00,jdr_py version_0.1,2013-09-01 17:54:00,
2013-09-01 12:00:00,64.8,52.7,29.82,NNE,16,4.0,5.0,74,0.00,,,0.00,jdr_py version_0.1,2013-09-01 18:00:00,
2013-09-01 12:06:00,64.8,53.2,29.82,North,355,3.0,3.0,75,0.00,,,0.00,jdr_py version_0.1,2013-09-01 18:06:00,
2013-09-01 12:12:00,65.0,52.3,29.82,NNE,15,3.0,0.0,73,0.00,,,0.00,jdr_py version_0.1,2013-09-01 18:12:00,
2013-09-01 12:18:00,64.7,52.0,29.82,NNE,17,1.0,0.0,73,0.00,,,0.00,jdr_py version_0.1,2013-09-01 18:18:00,
2013-09-01 12:24:00,64.3,50.6,29.86,NNE,29,1.0,0.0,71,0.00,,,0.00,jdr_py version_0.1,2013-09-01 18:24:00,
2013-09-01 12:30:00,64.3,50.6,29.86,NNE,32,1.0,3.0,71,0.00,,,0.00,jdr_py version_0.1,2013-09-01 18:30:00,
2013-09-01 12:36:00,64.3,51.7,29.86,NE,34,1.0,3.0,73,0.00,,,0.00,jdr_py version_0.1,2013-09-01 18:36:00,
2013-09-01 12:42:00,64.2,50.5,29.86,NE,44,1.0,3.0,71,0.00,,,0.00,jdr_py version_0.1,2013-09-01 18:42:00,
2013-09-01 12:48:00,64.2,51.0,29.86,ENE,76,1.0,1.0,72,0.00,,,0.00,jdr_py version_0.1,2013-09-01 18:48:00,
2013-09-01 12:54:00,64.3,50.0,29.86,ENE,75,1.0,4.0,70,0.00,,,0.00,jdr_py version_0.1,2013-09-01 18:54:00,
2013-09-01 13:00:00,64.3,50.6,29.86,NE,55,1.0,0.0,71,0.00,,,0.00,jdr_py version_0.1,2013-09-01 19:00:00,
2013-09-01 13:06:00,64.7,51.5,29.86,ENE,78,1.0,0.0,72,0.00,,,0.00,jdr_py version_0.1,2013-09-01 19:06:00,
2013-09-01 13:12:00,65.0,51.2,29.84,ENE,78,0.0,0.0,71,0.00,,,0.00,jdr_py version_0.1,2013-09-01 19:12:00,
2013-09-01 13:18:00,64.7,52.0,29.84,SSE,163,1.0,0.0,73,0.00,,,0.00,jdr_py version_0.1,2013-09-01 19:18:00,
2013-09-01 13:30:00,64.5,51.3,29.86,SE,135,2.0,2.0,72,0.00,,,0.00,jdr_py version_0.1,2013-09-01 19:30:00,
2013-09-01 13:36:00,64.3,51.7,29.86,SE,146,2.0,2.0,73,0.00,,,0.00,jdr_py version_0.1,2013-09-01 19:36:00,
2013-09-01 13:42:00,63.9,52.3,29.85,SSE,154,1.0,2.0,75,0.00,,,0.00,jdr_py version_0.1,2013-09-01 19:42:00,
2013-09-01 13:48:00,63.5,52.5,29.85,SSE,158,1.0,2.0,76,0.00,,,0.00,jdr_py version_0.1,2013-09-01 19:48:00,
2013-09-01 13:54:00,64.0,52.4,29.85,South,177,2.0,6.0,75,0.00,,,0.00,jdr_py version_0.1,2013-09-01 19:54:00,
2013-09-01 14:00:00,64.5,53.4,29.85,SSE,165,4.0,0.0,76,0.00,,,0.00,jdr_py version_0.1,2013-09-01 20:00:00,
2013-09-01 14:06:00,65.3,51.5,29.85,SSE,163,4.0,5.0,71,0.00,,,0.00,jdr_py version_0.1,2013-09-01 20:06:00,
2013-09-01 14:12:00,66.3,53.0,29.82,SE,145,4.0,0.0,72,0.00,,,0.00,jdr_py version_0.1,2013-09-01 20:12:00,
2013-09-01 14:18:00,66.4,50.8,29.82,SSE,160,3.0,7.0,68,0.00,,,0.00,jdr_py version_0.1,2013-09-01 20:18:00,
2013-09-01 14:24:00,66.3,50.2,29.82,SSE,163,5.0,5.0,67,0.00,,,0.00,jdr_py version_0.1,2013-09-01 20:24:00,
2013-09-01 14:30:00,66.4,51.4,29.82,South,173,2.0,2.0,69,0.00,,,0.00,jdr_py version_0.1,2013-09-01 20:30:00,
2013-09-01 14:36:00,65.8,52.0,29.82,SSE,161,3.0,7.0,71,0.00,,,0.00,jdr_py version_0.1,2013-09-01 20:36:00,
2013-09-01 14:42:00,65.6,51.8,29.81,South,178,4.0,4.0,71,0.00,,,0.00,jdr_py version_0.1,2013-09-01 20:42:00,
2013-09-01 14:48:00,66.0,51.6,29.81,SSE,155,5.0,11.0,70,0.00,,,0.00,jdr_py version_0.1,2013-09-01 20:48:00,
2013-09-01 14:54:00,65.5,50.6,29.82,SE,146,5.0,8.0,69,0.00,,,0.00,jdr_py version_0.1,2013-09-01 20:54:00,
2013-09-01 15:00:00,65.6,51.2,29.82,SSE,157,5.0,5.0,70,0.00,,,0.00,jdr_py version_0.1,2013-09-01 21:00:00,
2013-09-01 15:06:00,64.8,52.1,29.82,SSE,161,5.0,5.0,73,0.00,,,0.00,jdr_py version_0.1,2013-09-01 21:06:00,
2013-09-01 15:12:00,65.0,52.3,29.82,SSE,160,5.0,5.0,73,0.00,,,0.00,jdr_py version_0.1,2013-09-01 21:12:00,
2013-09-01 15:18:00,64.5,51.3,29.82,South,171,5.0,13.0,72,0.00,,,0.00,jdr_py version_0.1,2013-09-01 21:18:00,
2013-09-01 15:24:00,63.7,52.1,29.85,SSE,149,5.0,0.0,75,0.00,,,0.00,jdr_py version_0.1,2013-09-01 21:24:00,
2013-09-01 15:30:00,63.1,52.1,29.85,SSE,165,5.0,5.0,76,0.00,,,0.00,jdr_py version_0.1,2013-09-01 21:30:00,
2013-09-01 15:36:00,62.6,51.6,29.85,South,175,5.0,5.0,76,0.00,,,0.00,jdr_py version_0.1,2013-09-01 21:36:00,
2013-09-01 15:42:00,62.3,51.3,29.89,SSE,149,4.0,4.0,76,0.00,,,0.00,jdr_py version_0.1,2013-09-01 21:42:00,
2013-09-01 15:48:00,61.8,51.9,29.89,SSE,165,4.0,4.0,78,0.00,,,0.00,jdr_py version_0.1,2013-09-01 21:48:00,
2013-09-01 15:54:00,61.5,51.6,29.88,South,178,5.0,5.0,78,0.00,,,0.00,jdr_py version_0.1,2013-09-01 21:54:00,
2013-09-01 16:00:00,61.3,51.9,29.88,South,173,6.0,6.0,79,0.00,,,0.00,jdr_py version_0.1,2013-09-01 22:00:00,
2013-09-01 16:06:00,61.0,52.6,29.88,South,183,6.0,7.0,81,0.00,,,0.00,jdr_py version_0.1,2013-09-01 22:06:00,
2013-09-01 16:12:00,60.5,53.0,29.89,SSE,157,5.0,11.0,83,0.00,,,0.00,jdr_py version_0.1,2013-09-01 22:12:00,
2013-09-01 16:18:00,60.2,53.7,29.89,SSE,166,4.0,4.0,85,0.00,,,0.01,jdr_py version_0.1,2013-09-01 22:18:00,
2013-09-01 16:24:00,59.9,53.9,29.91,SSE,166,1.0,0.0,86,0.00,,,0.01,jdr_py version_0.1,2013-09-01 22:24:00,
2013-09-01 16:30:00,59.6,54.5,29.91,SSE,166,0.0,0.0,88,0.00,,,0.01,jdr_py version_0.1,2013-09-01 22:30:00,
2013-09-01 16:36:00,59.6,54.9,29.91,SSE,166,0.0,0.0,89,0.00,,,0.01,jdr_py version_0.1,2013-09-01 22:36:00,
2013-09-01 16:42:00,59.5,55.7,29.91,SSE,166,0.0,0.0,91,0.00,,,0.02,jdr_py version_0.1,2013-09-01 22:42:00,
2013-09-01 16:48:00,59.3,56.0,29.91,SSE,164,0.0,5.0,92,0.14,,,0.03,jdr_py version_0.1,2013-09-01 22:48:00,
2013-09-01 16:54:00,59.0,56.1,29.91,SSE,163,1.0,1.0,93,0.14,,,0.05,jdr_py version_0.1,2013-09-01 22:54:00,
2013-09-01 17:00:00,58.7,56.2,29.91,SSE,159,2.0,3.0,94,0.13,,,0.06,jdr_py version_0.1,2013-09-01 23:00:00,
2013-09-01 17:06:00,58.6,56.5,29.91,South,169,4.0,4.0,95,0.07,,,0.07,jdr_py version_0.1,2013-09-01 23:06:00,
2013-09-01 17:12:00,58.4,56.3,29.92,SSE,161,3.0,0.0,95,0.11,,,0.08,jdr_py version_0.1,2013-09-01 23:12:00,
2013-09-01 17:24:00,58.1,56.5,29.93,SSE,158,1.0,0.0,96,0.05,,,0.08,jdr_py version_0.1,2013-09-01 23:24:00,
2013-09-01 17:30:00,58.1,56.5,29.93,SSE,155,0.0,2.0,96,0.05,,,0.09,jdr_py version_0.1,2013-09-01 23:30:00,
2013-09-01 17:42:00,58.1,56.9,29.93,SSE,157,0.0,0.0,97,0.08,,,0.11,jdr_py version_0.1,2013-09-01 23:42:00,
2013-09-01 17:48:00,57.6,56.4,29.93,SSE,155,0.0,0.0,97,0.13,,,0.12,jdr_py version_0.1,2013-09-01 23:48:00,
2013-09-01 17:54:00,56.9,55.3,29.92,SSE,158,1.0,5.0,96,0.13,,,0.13,jdr_py version_0.1,2013-09-01 23:54:00,
2013-09-01 18:00:00,56.5,54.9,29.92,SSE,153,1.0,4.0,96,0.12,,,0.14,jdr_py version_0.1,2013-09-02 00:00:00,
2013-09-01 18:06:00,56.3,55.1,29.92,SSE,152,0.0,0.0,97,0.11,,,0.15,jdr_py version_0.1,2013-09-02 00:06:00,
2013-09-01 18:18:00,56.0,54.8,29.93,SSE,155,0.0,0.0,97,0.06,,,0.16,jdr_py version_0.1,2013-09-02 00:18:00,
2013-09-01 18:24:00,55.7,54.5,29.91,SSE,155,0.0,0.0,97,0.04,,,0.16,jdr_py version_0.1,2013-09-02 00:24:00,
2013-09-01 18:30:00,55.4,53.8,29.91,SSE,159,1.0,0.0,96,0.00,,,0.16,jdr_py version_0.1,2013-09-02 00:30:00,
2013-09-01 18:36:00,55.9,54.3,29.91,SSE,159,1.0,0.0,96,0.00,,,0.16,jdr_py version_0.1,2013-09-02 00:36:00,
2013-09-01 18:42:00,56.3,54.3,29.91,SSE,159,0.0,0.0,95,0.00,,,0.16,jdr_py version_0.1,2013-09-02 00:42:00,
2013-09-01 18:48:00,56.5,54.0,29.91,SSE,159,0.0,0.0,94,0.00,,,0.16,jdr_py version_0.1,2013-09-02 00:48:00,
2013-09-01 18:54:00,56.5,54.0,29.89,SSE,159,0.0,0.0,94,0.00,,,0.16,jdr_py version_0.1,2013-09-02 00:54:00,
2013-09-01 19:00:00,56.0,53.5,29.89,SSE,159,0.0,0.0,94,0.00,,,0.16,jdr_py version_0.1,2013-09-02 01:00:00,
2013-09-01 19:06:00,55.7,53.2,29.89,SSE,159,0.0,0.0,94,0.00,,,0.16,jdr_py version_0.1,2013-09-02 01:06:00,
2013-09-01 19:12:00,55.6,53.2,29.91,SSE,159,0.0,0.0,94,0.00,,,0.16,jdr_py version_0.1,2013-09-02 01:12:00,
2013-09-01 19:18:00,55.3,52.4,29.91,SSE,159,0.0,0.0,93,0.00,,,0.16,jdr_py version_0.1,2013-09-02 01:18:00,
2013-09-01 19:24:00,55.0,51.7,29.91,SSE,159,0.0,0.0,92,0.00,,,0.16,jdr_py version_0.1,2013-09-02 01:24:00,
2013-09-01 19:30:00,54.8,51.1,29.91,SSE,159,0.0,0.0,91,0.00,,,0.16,jdr_py version_0.1,2013-09-02 01:30:00,
2013-09-01 19:36:00,55.0,49.5,29.91,SSE,159,0.0,0.0,87,0.00,,,0.16,jdr_py version_0.1,2013-09-02 01:36:00,
2013-09-01 19:42:00,55.7,50.7,29.94,SSE,158,1.0,0.0,88,0.00,,,0.16,jdr_py version_0.1,2013-09-02 01:42:00,
2013-09-01 19:48:00,55.6,51.9,29.94,SSE,158,1.0,3.0,91,0.00,,,0.16,jdr_py version_0.1,2013-09-02 01:48:00,
2013-09-01 19:54:00,55.6,51.5,29.91,SSW,198,2.0,0.0,90,0.00,,,0.16,jdr_py version_0.1,2013-09-02 01:54:00,
2013-09-01 20:00:00,55.4,51.2,29.91,SSE,161,3.0,3.0,90,0.00,,,0.16,jdr_py version_0.1,2013-09-02 02:00:00,
2013-09-01 20:06:00,55.1,51.0,29.91,SSE,161,2.0,0.0,90,0.00,,,0.16,jdr_py version_0.1,2013-09-02 02:06:00,
2013-09-01 20:12:00,55.1,51.0,29.95,SSE,161,1.0,0.0,90,0.00,,,0.16,jdr_py version_0.1,2013-09-02 02:12:00,
2013-09-01 20:18:00,55.0,50.9,29.95,SSE,161,0.0,0.0,90,0.00,,,0.16,jdr_py version_0.1,2013-09-02 02:18:00,
2013-09-01 20:24:00,54.8,50.7,29.93,SSE,161,0.0,3.0,90,0.00,,,0.16,jdr_py version_0.1,2013-09-02 02:24:00,
2013-09-01 20:30:00,55.0,50.4,29.93,SSE,162,2.0,4.0,89,0.00,,,0.16,jdr_py version_0.1,2013-09-02 02:30:00,
2013-09-01 20:36:00,55.4,49.9,29.93,SSE,163,3.0,3.0,87,0.00,,,0.16,jdr_py version_0.1,2013-09-02 02:36:00,
2013-09-01 20:42:00,55.6,49.7,29.95,SSE,163,2.0,4.0,86,0.00,,,0.16,jdr_py version_0.1,2013-09-02 02:42:00,
2013-09-01 20:48:00,55.6,50.1,29.95,SSE,163,3.0,3.0,87,0.00,,,0.16,jdr_py version_0.1,2013-09-02 02:48:00,
2013-09-01 20:54:00,55.7,50.2,29.95,SSE,165,3.0,5.0,87,0.00,,,0.16,jdr_py version_0.1,2013-09-02 02:54:00,
2013-09-01 21:00:00,55.9,50.4,29.95,SSE,166,2.0,2.0,87,0.00,,,0.16,jdr_py version_0.1,2013-09-02 03:00:00,
2013-09-01 21:06:00,55.9,50.4,29.95,SSE,163,2.0,3.0,87,0.00,,,0.16,jdr_py version_0.1,2013-09-02 03:06:00,
2013-09-01 21:12:00,56.2,51.2,29.95,SSE,167,3.0,3.0,88,0.00,,,0.16,jdr_py version_0.1,2013-09-02 03:12:00,
2013-09-01 21:18:00,56.3,51.7,29.95,SSE,167,2.0,2.0,89,0.00,,,0.16,jdr_py version_0.1,2013-09-02 03:18:00,
2013-09-01 21:24:00,56.5,51.9,29.91,SSE,165,3.0,0.0,89,0.00,,,0.16,jdr_py version_0.1,2013-09-02 03:24:00,
2013-09-01 21:30:00,56.6,52.4,29.91,South,175,3.0,3.0,90,0.00,,,0.16,jdr_py version_0.1,2013-09-02 03:30:00,
2013-09-01 21:36:00,56.9,52.7,29.91,SSE,163,3.0,3.0,90,0.00,,,0.16,jdr_py version_0.1,2013-09-02 03:36:00,
2013-09-01 21:42:00,57.0,52.8,29.92,SSE,159,3.0,3.0,90,0.00,,,0.16,jdr_py version_0.1,2013-09-02 03:42:00,
2013-09-01 21:48:00,57.0,52.8,29.92,SSE,166,4.0,4.0,90,0.00,,,0.16,jdr_py version_0.1,2013-09-02 03:48:00,
2013-09-01 21:54:00,56.9,52.7,29.92,South,174,3.0,3.0,90,0.00,,,0.16,jdr_py version_0.1,2013-09-02 03:54:00,
2013-09-01 22:00:00,57.0,52.8,29.92,SSE,167,4.0,4.0,90,0.00,,,0.16,jdr_py version_0.1,2013-09-02 04:00:00,
2013-09-01 22:06:00,57.0,52.8,29.92,SSE,163,4.0,4.0,90,0.00,,,0.16,jdr_py version_0.1,2013-09-02 04:06:00,
2013-09-01 22:12:00,57.0,52.8,29.92,SSE,165,4.0,0.0,90,0.00,,,0.16,jdr_py version_0.1,2013-09-02 04:12:00,
2013-09-01 22:18:00,57.2,53.5,29.92,SSE,163,4.0,5.0,91,0.00,,,0.16,jdr_py version_0.1,2013-09-02 04:18:00,
2013-09-01 22:24:00,57.2,53.5,29.89,South,184,4.0,9.0,91,0.00,,,0.16,jdr_py version_0.1,2013-09-02 04:24:00,
2013-09-01 22:30:00,57.2,53.5,29.89,SSE,153,5.0,8.0,91,0.00,,,0.16,jdr_py version_0.1,2013-09-02 04:30:00,
2013-09-01 22:36:00,57.2,53.5,29.89,SSE,164,4.0,4.0,91,0.00,,,0.16,jdr_py version_0.1,2013-09-02 04:36:00,
2013-09-01 22:42:00,57.3,53.5,29.89,SSE,167,4.0,4.0,91,0.00,,,0.16,jdr_py version_0.1,2013-09-02 04:42:00,
2013-09-01 22:48:00,57.5,53.8,29.89,SSE,167,6.0,6.0,91,0.00,,,0.16,jdr_py version_0.1,2013-09-02 04:48:00,
2013-09-01 22:54:00,57.6,53.8,29.87,SSE,164,6.0,6.0,91,0.00,,,0.16,jdr_py version_0.1,2013-09-02 04:54:00,
2013-09-01 23:00:00,57.6,53.8,29.87,South,175,5.0,6.0,91,0.00,,,0.16,jdr_py version_0.1,2013-09-02 05:00:00,
2013-09-01 23:06:00,57.5,53.8,29.87,SSE,163,5.0,5.0,91,0.00,,,0.16,jdr_py version_0.1,2013-09-02 05:06:00,
2013-09-01 23:12:00,57.5,53.8,29.86,SSE,159,5.0,7.0,91,0.00,,,0.16,jdr_py version_0.1,2013-09-02 05:12:00,
2013-09-01 23:18:00,57.6,53.8,29.86,South,180,5.0,6.0,91,0.00,,,0.16,jdr_py version_0.1,2013-09-02 05:18:00,
2013-09-01 23:24:00,57.8,54.0,29.86,SSE,155,4.0,4.0,91,0.00,,,0.16,jdr_py version_0.1,2013-09-02 05:24:00,
2013-09-01 23:30:00,57.8,54.0,29.86,South,178,5.0,7.0,91,0.00,,,0.16,jdr_py version_0.1,2013-09-02 05:30:00,
2013-09-01 23:36:00,58.0,54.2,29.86,South,181,5.0,0.0,91,0.00,,,0.16,jdr_py version_0.1,2013-09-02 05:36:00,
2013-09-01 23:42:00,58.0,54.2,29.86,SSE,158,5.0,6.0,91,0.00,,,0.16,jdr_py version_0.1,2013-09-02 05:42:00,
2013-09-01 23:48:00,58.0,54.2,29.86,SSE,163,6.0,6.0,91,0.00,,,0.16,jdr_py version_0.1,2013-09-02 05:48:00,
2013-09-01 23:54:00,58.0,54.2,29.86,SSE,155,5.0,6.0,91,0.00,,,0.16,jdr_py version_0.1,2013-09-02 05:54:00,